Oakdale, LA

11:57 PM CDT on August 19, 2017 (GMT -0500)
Oakdale

Weather History for KACP - January, 2013

Change the Weather History Date:

Sunday, January 6, 2013

  Actual Average (KPOE) Record (KPOE)
Temperature  
Mean Temperature 52 °F -  
Max Temperature 59 °F 58 °F 75 °F (2008)
Min Temperature 44 °F 38 °F 21 °F (2014)
Degree Days  
Heating Degree Days 12    
Growing Degree Days 2 (Base 50)    
Moisture  
Dew Point 44 °F    
Average Humidity 73    
Maximum Humidity 100    
Minimum Humidity 51    
Precipitation  
Precipitation 0.03 in - - ()
Sea Level Pressure  
Sea Level Pressure 30.28 in    
Wind  
Wind Speed 6 mph (North)    
Max Wind Speed 14 mph    
Max Gust Speed 21 mph    
Visibility 9 miles    
Events Rain    
Averages and records for this station are not official NWS values.
T = Trace of Precipitation, MM = Missing Value Source: NWS Daily Summary

Daily Weather History Graph

Daily Weather History Graph

Search for Another Location

Airport or City:

Trip Planner

Search our weather history database for the weather conditions in past years. The results will help you decide how hot, cold, wet, or windy it might be!

Date:

Astronomy

Jan. 06, 2013 Rise Set
Actual Time 7:09 AM CST 5:24 PM CST
Civil Twilight 6:42 AM CST 5:50 PM CST
Nautical Twilight 6:13 AM CST 6:20 PM CST
Astronomical Twilight 5:43 AM CST 6:50 PM CST
Moon 1:33 AM CST (1/6) 12:44 PM CST (1/6)
Length of Visible Light 11h 07m
Length of Day
10h 15m
Waning Crescent, 33% of the Moon is Illuminated
Jan 6
Waning Crescent
Jan 11
New
Jan 18
First Quarter
Jan 26
Full
Feb 3
Last Quarter

Hourly Weather History & Observations

Time (CST) Temp. Windchill Dew Point Humidity Pressure Visibility Wind Dir Wind Speed Gust Speed Precip Events Conditions
12:15 AM - - - N/A% 30.25 in 4.0 mi North 4.6 mph - 0.01 in   Light Drizzle
12:35 AM - - - N/A% 30.26 in 5.0 mi Calm Calm - 0.02 in   Light Drizzle
12:55 AM - - - N/A% 30.25 in 5.0 mi NNE 5.8 mph - 0.02 in Rain Light Rain
1:15 AM - - - N/A% 30.26 in 5.0 mi North 4.6 mph - N/A   Light Drizzle
1:35 AM - - - N/A% 30.26 in 7.0 mi North 8.1 mph - N/A   Overcast
1:55 AM - - - N/A% 30.26 in 7.0 mi North 6.9 mph - N/A   Overcast
2:15 AM - - - N/A% 30.26 in 7.0 mi North 8.1 mph - N/A   Overcast
2:35 AM - - - N/A% 30.25 in 7.0 mi North 9.2 mph - N/A   Overcast
2:55 AM - - - N/A% 30.25 in 10.0 mi North 8.1 mph - N/A   Overcast
3:15 AM - - - N/A% 30.26 in 7.0 mi North 10.4 mph - N/A   Overcast
3:35 AM - - - N/A% 30.26 in 4.0 mi North 8.1 mph - N/A   Haze
3:55 AM - - - N/A% 30.26 in 5.0 mi North 5.8 mph - N/A   Haze
4:15 AM - - - N/A% 30.26 in 10.0 mi North 8.1 mph - N/A   Overcast
4:35 AM - - - N/A% 30.26 in 4.0 mi North 8.1 mph - N/A   Haze
4:55 AM - - - N/A% 30.26 in 5.0 mi North 10.4 mph - N/A   Haze
5:15 AM - - - N/A% 30.26 in 3.0 mi North 9.2 mph - N/A   Overcast
5:35 AM - - - N/A% 30.26 in 10.0 mi North 8.1 mph - 0.01 in   Overcast
5:55 AM - - - N/A% 30.26 in 10.0 mi North 8.1 mph - 0.01 in   Overcast
6:15 AM - - - N/A% 30.28 in 10.0 mi North 6.9 mph - N/A   Overcast
6:35 AM - - - N/A% 30.28 in 10.0 mi North 9.2 mph - N/A   Overcast
6:55 AM - - - N/A% 30.29 in 10.0 mi North 8.1 mph - N/A   Overcast
7:15 AM - - - N/A% 30.29 in 10.0 mi North 4.6 mph - N/A   Overcast
7:35 AM - - - N/A% 30.30 in 10.0 mi North 5.8 mph - N/A   Overcast
7:55 AM - - - N/A% 30.30 in 10.0 mi North 5.8 mph - N/A   Overcast
8:35 AM - - - N/A% 30.32 in 10.0 mi North 6.9 mph - N/A   Overcast
8:55 AM 46.4 °F 41.9 °F 46.4 °F 100% 30.32 in 10.0 mi NNE 9.2 mph 16.1 mph N/A   Scattered Clouds
9:15 AM 46.4 °F 42.4 °F 46.4 °F 100% 30.33 in 10.0 mi NNE 8.1 mph - N/A   Scattered Clouds
9:35 AM 46.4 °F 42.4 °F 46.4 °F 100% 30.33 in 10.0 mi North 8.1 mph - N/A   Scattered Clouds
9:55 AM 48.2 °F - 48.2 °F 100% 30.32 in 10.0 mi NNE 8.1 mph - N/A   Scattered Clouds
10:15 AM 50.0 °F - 48.2 °F 94% 30.32 in 10.0 mi North 10.4 mph - N/A   Scattered Clouds
10:35 AM 51.8 °F - 42.8 °F 71% 30.32 in 10.0 mi NNE 10.4 mph 18.4 mph N/A   Clear
10:55 AM 51.8 °F - 42.8 °F 71% 30.31 in 10.0 mi NNE 10.4 mph 20.7 mph N/A   Clear
11:35 AM 53.6 °F - 42.8 °F 67% 30.31 in 10.0 mi NNE 13.8 mph 18.4 mph N/A   Clear
11:55 AM 55.4 °F - 42.8 °F 63% 30.30 in 10.0 mi North 8.1 mph 17.3 mph N/A   Scattered Clouds
12:15 PM 55.4 °F - 42.8 °F 63% 30.29 in 10.0 mi NNE 11.5 mph 20.7 mph N/A   Scattered Clouds
12:35 PM 55.4 °F - 42.8 °F 63% 30.28 in 10.0 mi NNE 8.1 mph 16.1 mph N/A   Clear
12:55 PM 57.2 °F - 42.8 °F 59% 30.27 in 10.0 mi NNE 9.2 mph - N/A   Clear
1:15 PM 57.2 °F - 42.8 °F 59% 30.26 in 10.0 mi North 9.2 mph - N/A   Clear
1:35 PM 57.2 °F - 41.0 °F 55% 30.25 in 10.0 mi NNE 12.7 mph - N/A   Clear
1:55 PM 57.2 °F - 41.0 °F 55% 30.24 in 10.0 mi North 11.5 mph - N/A   Clear
2:15 PM 59.0 °F - 42.8 °F 55% 30.24 in 10.0 mi NE 8.1 mph - N/A   Clear
2:35 PM 59.0 °F - 42.8 °F 55% 30.24 in 10.0 mi NNE 9.2 mph - N/A   Clear
2:55 PM 59.0 °F - 41.0 °F 51% 30.24 in 10.0 mi North 8.1 mph - N/A   Clear
3:15 PM 59.0 °F - 41.0 °F 51% 30.24 in 10.0 mi North 10.4 mph - N/A   Clear
3:35 PM 59.0 °F - 42.8 °F 55% 30.25 in 10.0 mi North 8.1 mph - N/A   Clear
3:55 PM 59.0 °F - 42.8 °F 55% 30.25 in 10.0 mi NE 8.1 mph - N/A   Clear
4:15 PM 57.2 °F - 42.8 °F 59% 30.26 in 10.0 mi NE 4.6 mph - N/A   Clear
4:35 PM 57.2 °F - 42.8 °F 59% 30.26 in 10.0 mi NNE 5.8 mph - N/A   Clear
4:55 PM 55.4 °F - 44.6 °F 67% 30.26 in 10.0 mi NE 3.5 mph - N/A   Clear
5:15 PM 53.6 °F - 44.6 °F 72% 30.27 in 10.0 mi Calm Calm - N/A   Clear
6:15 PM - - - N/A% 30.28 in 10.0 mi North 3.5 mph - N/A   Clear
6:35 PM 46.4 °F 43.5 °F 46.4 °F 100% 30.28 in 10.0 mi North 5.8 mph - N/A   Clear
6:55 PM 48.2 °F - 48.2 °F 100% 30.29 in 10.0 mi NNW 5.8 mph - N/A   Clear
7:15 PM 46.4 °F 44.3 °F 46.4 °F 100% 30.30 in 10.0 mi NNW 4.6 mph - N/A   Clear
7:35 PM 46.4 °F 45.2 °F 46.4 °F 100% 30.31 in 10.0 mi North 3.5 mph - N/A   Clear
7:55 PM 44.6 °F - 44.6 °F 100% 30.31 in 10.0 mi Calm Calm - N/A   Clear
8:15 PM - - - N/A% 30.32 in 10.0 mi Calm Calm - N/A   Clear
8:35 PM - - - N/A% 30.32 in 10.0 mi Calm Calm - N/A   Clear
8:55 PM - - - N/A% 30.32 in 5.0 mi Calm Calm - N/A   Haze
9:15 PM - - - N/A% 30.32 in 10.0 mi NNE 3.5 mph - N/A   Clear
9:35 PM - - - N/A% 30.33 in 7.0 mi Calm Calm - N/A   Clear
10:15 PM - - - N/A% 30.32 in 7.0 mi Calm Calm - N/A   Clear
10:35 PM - - - N/A% 30.32 in 7.0 mi Calm Calm - N/A   Clear
10:55 PM - - - N/A% 30.32 in 5.0 mi Calm Calm - N/A   Haze
11:55 PM - - - N/A% 30.32 in 5.0 mi Calm Calm - N/A   Haze